Broken Bow, NE

6:45 PM CST on February 07, 2016 (GMT -0600)
Broken Bow Municipal

Weather History for KBBW - December, 2012

Change the Weather History Date:

Tuesday, December 4, 2012

  Actual Average Record
Temperature  
Mean Temperature 38 °F 27 °F  
Max Temperature 57 °F 40 °F 69 °F (1998)
Min Temperature 19 °F 15 °F -8 °F (1978)
Degree Days  
Heating Degree Days 27 38  
Month to date heating degree days 86 149  
Cooling Degree Days 0 0  
Month to date cooling degree days 0 0  
Year to date cooling degree days 1077 768  
Moisture  
Dew Point 15 °F    
Average Humidity 44    
Maximum Humidity 67    
Minimum Humidity 20    
Precipitation  
Precipitation 0.00 in 0.04 in 0.73 in (1913)
Sea Level Pressure  
Sea Level Pressure 30.26 in    
Wind  
Wind Speed 4 mph (West)    
Max Wind Speed 20 mph    
Max Gust Speed 46 mph    
Visibility 10 miles    
Events      
T = Trace of Precipitation, MM = Missing Value Source: NWS Daily Summary

Daily Weather History Graph

Daily Weather History Graph

Search for Another Location

Airport or City:

Trip Planner

Search our weather history database for the weather conditions in past years. The results will help you decide how hot, cold, wet, or windy it might be!

Date:

Astronomy

Dec. 04, 2012 Rise Set
Actual Time 7:48 AM CST 5:09 PM CST
Civil Twilight 7:17 AM CST 5:40 PM CST
Nautical Twilight 6:43 AM CST 6:14 PM CST
Astronomical Twilight 6:09 AM CST 6:48 PM CST
Moon 11:00 PM CST (12/4) 11:41 AM CST (12/4)
Length of Visible Light 10h 22m
Length of Day
9h 20m
Waning Gibbous, 69% of the Moon is Illuminated
Dec 4
Waning Gibbous
Dec 6
Last Quarter
Dec 13
New
Dec 19
First Quarter
Dec 28
Full

Hourly Weather History & Observations

Time (CST) Temp. Windchill Dew Point Humidity Pressure Visibility Wind Dir Wind Speed Gust Speed Precip Events Conditions
12:53 AM 23.0 °F - 12.9 °F 65% 30.18 in 10.0 mi Calm Calm - N/A   Clear
1:53 AM 34.0 °F 28.0 °F 15.1 °F 46% 30.16 in 10.0 mi West 6.9 mph - N/A   Clear
2:53 AM 37.9 °F 29.6 °F 15.1 °F 39% 30.17 in 10.0 mi West 13.8 mph - N/A   Clear
3:53 AM 37.0 °F 32.4 °F 15.1 °F 41% 30.18 in 10.0 mi NW 5.8 mph - N/A   Clear
4:53 AM 35.1 °F 25.9 °F 17.1 °F 48% 30.21 in 10.0 mi WNW 13.8 mph - N/A   Clear
5:53 AM 35.1 °F 25.5 °F 17.1 °F 48% 30.26 in 10.0 mi NW 15.0 mph - N/A   Clear
6:53 AM 34.0 °F 28.8 °F 17.1 °F 50% 30.29 in 10.0 mi SW 5.8 mph - N/A   Clear
7:53 AM 32.0 °F 25.6 °F 17.1 °F 54% 30.33 in 10.0 mi WNW 6.9 mph - N/A   Clear
8:53 AM 30.9 °F 27.5 °F 18.0 °F 59% 30.35 in 10.0 mi West 3.5 mph - N/A   Clear
9:53 AM 39.9 °F - 19.9 °F 45% 30.35 in 10.0 mi Calm Calm - N/A   Clear
10:53 AM 48.0 °F - 19.9 °F 33% 30.34 in 10.0 mi NW 4.6 mph - N/A   Clear
11:53 AM 53.1 °F - 17.1 °F 24% 30.32 in 10.0 mi North 6.9 mph - N/A   Clear
12:53 PM 55.0 °F - 17.1 °F 23% 30.30 in 10.0 mi NNE 4.6 mph - N/A   Clear
1:53 PM 55.9 °F - 16.0 °F 21% 30.26 in 10.0 mi Calm Calm - N/A   Clear
2:53 PM 55.0 °F - 16.0 °F 22% 30.22 in 10.0 mi SSW 5.8 mph - N/A   Clear
3:53 PM 53.1 °F - 15.1 °F 22% 30.24 in 10.0 mi SE 4.6 mph - N/A   Clear
4:53 PM 46.9 °F - 15.1 °F 28% 30.25 in 10.0 mi SSE 4.6 mph - N/A   Clear
5:53 PM 34.0 °F - 12.0 °F 40% 30.26 in 10.0 mi Calm Calm - N/A   Clear
6:53 PM 30.9 °F - 12.9 °F 47% 30.26 in 9.0 mi Calm Calm - N/A   Clear
7:53 PM 26.1 °F - 12.0 °F 55% 30.28 in 10.0 mi Calm Calm - N/A   Clear
8:53 PM 24.1 °F - 10.9 °F 57% 30.28 in 10.0 mi Calm Calm - N/A   Clear
9:53 PM 23.0 °F - 10.9 °F 60% 30.27 in 10.0 mi Calm Calm - N/A   Clear
10:53 PM 24.1 °F 19.7 °F 12.0 °F 60% 30.25 in 10.0 mi SE 3.5 mph - N/A   Clear
11:53 PM 27.0 °F - 14.0 °F 58% 30.22 in 10.0 mi Calm Calm - N/A   Clear